When you browse on this site, cookies collect data to enhance your experience and personalize the content and advertising you see.
Visit our Privacy Policy to learn more. By continuing to use the site, you agree to this use of cookies and data.
  • In Hungary
  • List of Countries
  • For 7 days
  • Water Temperature
  • Satellite Maps
  • Weather Map
  • News
  • Weather Widgets
  • user-avatar
    Login

    Hourly Weather Qianguo

    Today, 23 April, Tuesday

    Time Temperature Precipitation Wind Pressure Humidity
    00:00 +18°C° 0 mm 10 mps 738 mmHg 53%
    01:00 +17°C° 0 mm 9 mps 738 mmHg 56%
    02:00 +17°C° 0 mm 8 mps 739 mmHg 58%
    03:00 +16°C° 0 mm 7 mps 739 mmHg 61%
    04:00 +16°C° 0 mm 6 mps 740 mmHg 63%
    05:00 +15°C° 0 mm 5 mps 741 mmHg 65%
    06:00 +16°C° 0 mm 5 mps 742 mmHg 51%
    07:00 +16°C° 0 mm 6 mps 743 mmHg 37%
    08:00 +19°C° 0 mm 5 mps 744 mmHg 24%
    09:00 +19°C° 0 mm 5 mps 744 mmHg 23%
    10:00 +19°C° 0 mm 6 mps 745 mmHg 22%
    11:00 +20°C° 0 mm 6 mps 745 mmHg 21%
    12:00 +20°C° 0 mm 6 mps 745 mmHg 20%
    13:00 +21°C° 0 mm 6 mps 745 mmHg 19%
    14:00 +21°C° 0 mm 6 mps 745 mmHg 17%
    15:00 +21°C° 0 mm 6 mps 745 mmHg 17%
    16:00 +20°C° 0 mm 5 mps 745 mmHg 17%
    17:00 +20°C° 0 mm 4 mps 745 mmHg 16%
    18:00 +19°C° 0 mm 4 mps 746 mmHg 16%
    19:00 +18°C° 0 mm 3 mps 746 mmHg 17%
    20:00 +16°C° 0 mm 3 mps 746 mmHg 17%
    21:00 +15°C° 0 mm 4 mps 747 mmHg 15%
    22:00 +14°C° 0 mm 6 mps 748 mmHg 13%
    23:00 +14°C° 0 mm 7 mps 748 mmHg 11%

    Tomorrow, 24 April, Wednesday

    Time Temperature Precipitation Wind Pressure Humidity
    00:00 +12°C° 0 mm 7 mps 749 mmHg 11%
    01:00 +11°C° 0 mm 7 mps 749 mmHg 11%
    02:00 +10°C° 0 mm 7 mps 750 mmHg 11%
    03:00 +10°C° 0 mm 6 mps 750 mmHg 11%
    04:00 +9°C° 0 mm 5 mps 750 mmHg 11%
    05:00 +10°C° 0 mm 4 mps 751 mmHg 11%
    06:00 +9°C° 0 mm 5 mps 751 mmHg 11%
    07:00 +9°C° 0 mm 6 mps 751 mmHg 11%
    08:00 +10°C° 0 mm 6 mps 751 mmHg 11%
    09:00 +10°C° 0 mm 6 mps 751 mmHg 11%
    10:00 +10°C° 0 mm 6 mps 750 mmHg 10%
    11:00 +11°C° 0 mm 6 mps 750 mmHg 10%
    12:00 +11°C° 0 mm 6 mps 750 mmHg 12%
    13:00 +13°C° 0 mm 5 mps 749 mmHg 13%
    14:00 +13°C° 0 mm 5 mps 749 mmHg 15%
    15:00 +13°C° 0 mm 5 mps 749 mmHg 18%
    16:00 +13°C° 0 mm 4 mps 749 mmHg 20%
    17:00 +13°C° 0 mm 4 mps 749 mmHg 22%
    18:00 +12°C° 0 mm 3 mps 749 mmHg 25%
    19:00 +11°C° 0 mm 3 mps 749 mmHg 27%
    20:00 +10°C° 0 mm 2 mps 750 mmHg 29%
    21:00 +10°C° 0 mm 2 mps 750 mmHg 30%
    22:00 +9°C° 0 mm 3 mps 750 mmHg 31%
    23:00 +9°C° 0 mm 3 mps 750 mmHg 32%

    Day after tomorrow, 25 April, Thursday

    Time Temperature Precipitation Wind Pressure Humidity
    00:00 +8°C° 0 mm 3 mps 750 mmHg 34%
    01:00 +7°C° 0 mm 3 mps 750 mmHg 36%
    02:00 +7°C° 0 mm 3 mps 750 mmHg 38%
    03:00 +5°C° 0 mm 3 mps 750 mmHg 39%
    04:00 +5°C° 0 mm 3 mps 751 mmHg 41%
    05:00 +4°C° 0 mm 3 mps 751 mmHg 42%
    06:00 +6°C° 0 mm 4 mps 751 mmHg 37%
    07:00 +8°C° 0 mm 5 mps 751 mmHg 33%
    08:00 +9°C° 0 mm 6 mps 752 mmHg 28%
    09:00 +10°C° 0 mm 6 mps 752 mmHg 26%
    10:00 +11°C° 0 mm 6 mps 751 mmHg 23%
    11:00 +12°C° 0 mm 7 mps 751 mmHg 21%
    12:00 +12°C° 0 mm 7 mps 751 mmHg 21%
    13:00 +14°C° 0 mm 7 mps 751 mmHg 21%
    14:00 +14°C° 0 mm 7 mps 750 mmHg 21%
    15:00 +14°C° 0 mm 6 mps 750 mmHg 22%
    16:00 +13°C° 0 mm 6 mps 750 mmHg 24%
    17:00 +13°C° 0 mm 6 mps 750 mmHg 26%
    18:00 +12°C° 0 mm 5 mps 750 mmHg 28%
    19:00 +11°C° 0 mm 4 mps 750 mmHg 30%
    20:00 +10°C° 0 mm 2 mps 750 mmHg 32%
    21:00 +10°C° 0 mm 3 mps 750 mmHg 32%
    22:00 +9°C° 0 mm 3 mps 750 mmHg 33%
    23:00 +8°C° 0 mm 3 mps 751 mmHg 33%

    26 April, Friday

    Time Temperature Precipitation Wind Pressure Humidity
    00:00 +8°C° 0 mm 3 mps 751 mmHg 34%
    01:00 +8°C° 0 mm 3 mps 751 mmHg 35%
    02:00 +7°C° 0 mm 3 mps 751 mmHg 36%
    03:00 +7°C° 0 mm 3 mps 751 mmHg 38%
    04:00 +5°C° 0 mm 3 mps 751 mmHg 40%
    05:00 +6°C° 0 mm 2 mps 751 mmHg 42%
    06:00 +8°C° 0 mm 3 mps 752 mmHg 37%
    07:00 +10°C° 0 mm 3 mps 752 mmHg 32%
    08:00 +11°C° 0 mm 4 mps 753 mmHg 26%
    09:00 +12°C° 0 mm 4 mps 753 mmHg 24%
    10:00 +13°C° 0 mm 4 mps 753 mmHg 21%
    11:00 +14°C° 0 mm 4 mps 753 mmHg 18%
    12:00 +15°C° 0 mm 4 mps 753 mmHg 17%
    13:00 +15°C° 0 mm 4 mps 752 mmHg 16%
    14:00 +17°C° 0 mm 4 mps 752 mmHg 15%
    15:00 +17°C° 0 mm 4 mps 751 mmHg 15%
    16:00 +17°C° 0 mm 3 mps 751 mmHg 15%
    17:00 +17°C° 0 mm 3 mps 751 mmHg 15%
    18:00 +15°C° 0 mm 2 mps 751 mmHg 17%
    19:00 +14°C° 0 mm 1 mps 751 mmHg 18%
    20:00 +12°C° 0 mm 0 mps 751 mmHg 20%
    21:00 +13°C° 0 mm 1 mps 751 mmHg 21%
    22:00 +12°C° 0 mm 2 mps 751 mmHg 21%
    23:00 +10°C° 0 mm 3 mps 751 mmHg 22%

    27 April, Saturday

    Time Temperature Precipitation Wind Pressure Humidity
    00:00 +10°C° 0 mm 3 mps 751 mmHg 23%
    01:00 +9°C° 0 mm 3 mps 751 mmHg 23%
    02:00 +9°C° 0 mm 3 mps 751 mmHg 24%
    03:00 +9°C° 0 mm 3 mps 751 mmHg 24%
    04:00 +8°C° 0 mm 4 mps 751 mmHg 24%
    05:00 +7°C° 0 mm 4 mps 751 mmHg 25%
    06:00 +10°C° 0 mm 5 mps 751 mmHg 22%
    07:00 +13°C° 0 mm 6 mps 751 mmHg 20%
    08:00 +15°C° 0 mm 7 mps 751 mmHg 18%
    09:00 +17°C° 0 mm 7 mps 751 mmHg 17%
    10:00 +19°C° 0 mm 6 mps 750 mmHg 16%
    11:00 +21°C° 0 mm 6 mps 750 mmHg 15%
    12:00 +22°C° 0 mm 6 mps 749 mmHg 14%
    13:00 +22°C° 0 mm 5 mps 749 mmHg 13%
    14:00 +23°C° 0 mm 5 mps 748 mmHg 12%
    15:00 +23°C° 0 mm 5 mps 748 mmHg 13%
    16:00 +23°C° 0 mm 5 mps 748 mmHg 14%
    17:00 +23°C° 0 mm 5 mps 747 mmHg 14%
    18:00 +21°C° 0 mm 4 mps 747 mmHg 17%
    19:00 +20°C° 0 mm 4 mps 747 mmHg 19%
    20:00 +18°C° 0 mm 4 mps 747 mmHg 21%
    21:00 +17°C° 0 mm 5 mps 747 mmHg 21%
    22:00 +17°C° 0 mm 6 mps 747 mmHg 22%
    23:00 +16°C° 0 mm 7 mps 747 mmHg 22%

    28 April, Sunday

    Time Temperature Precipitation Wind Pressure Humidity
    00:00 +16°C° 0 mm 7 mps 747 mmHg 24%
    01:00 +15°C° 0 mm 7 mps 747 mmHg 27%
    02:00 +14°C° 0 mm 7 mps 747 mmHg 29%
    03:00 +14°C° 0 mm 7 mps 747 mmHg 27%
    04:00 +14°C° 0 mm 7 mps 747 mmHg 26%
    05:00 +12°C° 0 mm 7 mps 747 mmHg 24%
    06:00 +13°C° 0 mm 8 mps 747 mmHg 24%
    07:00 +13°C° 0 mm 8 mps 747 mmHg 23%
    08:00 +15°C° 0 mm 9 mps 747 mmHg 22%
    09:00 +16°C° 0 mm 9 mps 747 mmHg 24%
    10:00 +17°C° 0 mm 9 mps 746 mmHg 26%
    11:00 +18°C° 0 mm 8 mps 746 mmHg 27%
    12:00 +19°C° 0 mm 9 mps 746 mmHg 27%
    13:00 +21°C° 0 mm 9 mps 745 mmHg 26%
    14:00 +21°C° 0 mm 9 mps 745 mmHg 25%
    15:00 +19°C° 0 mm 9 mps 744 mmHg 26%
    16:00 +20°C° 0 mm 8 mps 744 mmHg 28%
    17:00 +18°C° 0 mm 8 mps 744 mmHg 29%
    18:00 +17°C° 0 mm 7 mps 744 mmHg 29%
    19:00 +17°C° 0 mm 7 mps 744 mmHg 29%
    20:00 +16°C° 0 mm 6 mps 744 mmHg 30%
    21:00 +16°C° 0 mm 6 mps 744 mmHg 31%
    22:00 +15°C° 0 mm 6 mps 744 mmHg 32%
    23:00 +15°C° 0 mm 6 mps 744 mmHg 34%
    Show more